User: anonymous   Login
Location: Unspecified
(0.0000°N, 0.0000°E)
Time: 10:45:08
(UTC+00:00)
Language:

N. Korean satellite - Orbit

View from above orbital plane
View from above orbital plane
View from above satellite
View from above satellite

Ground track
Ground track

The orbit data is extracted from the following two-line orbital elements,

1 39026U 12072A   17179.75159603 +.00001341 +00000-0 +54479-4 0  9995
2 39026 097.2226 197.2001 0041833 134.3740 226.0937 15.25475474251697
Epoch (UTC): 28 June 2017 18:02:17
Eccentricity: 0.0041833
inclination: 97.2226°
perigee height: 460 km
apogee height: 518 km
right ascension of ascending node: 197.2001°
argument of perigee: 134.3740°
revolutions per day: 15.25475474
mean anomaly at epoch: 226.0937°
orbit number at epoch: 25169

The dashed part of the orbit path shows where the satellite is in the earth's shadow,  

DLR